Location: Sungai Jaoh
(2.9167°N, 113.9167°E)
Time: 06:15:34
(UTC+00:00)

SL-16 R/B - Pass Details

Date: 30 November 2020
Orbit: 841 x 849 km, 71.0° (Epoch: 25 January)

Event Time Altitude Azimuth Distance (km) Brightness Sun altitude
Exits shadow 19:29:12 23° 83° (E) 1,713 4.2 -38.9°
Drops below altitude 10° 19:33:04 10° 126° (SE) 2,466 5.3 -38.0°
Sets 19:35:59 0° 139° (SE) 3,404 6.2 -37.3°
